Time,TemperatureF,DewpointF,PressureIn,WindDirection,WindDirectionDegrees,WindSpeedMPH,WindSpeedGustMPH,Humidity,HourlyPrecipIn,Conditions,Clouds,dailyrainin,SoftwareType,DateUTC
2013-03-26 00:22:00,26.0,24.0,-100.00,SW,223,10.0,17.0,91,-99.99,,,-99.99,,2013-03-26 06:22:00,
2013-03-26 00:32:00,26.0,24.0,-100.00,SSW,203,10.0,17.0,91,-99.99,,,-99.99,,2013-03-26 06:32:00,
2013-03-26 00:43:00,26.0,24.0,-100.00,SSW,203,10.0,17.0,91,-99.99,,,-99.99,,2013-03-26 06:43:00,
2013-03-26 00:52:00,26.0,23.0,-100.00,SW,215,12.0,17.0,90,-99.99,,,-99.99,,2013-03-26 06:52:00,
2013-03-26 01:02:00,26.0,23.0,-100.00,SW,215,12.0,17.0,90,-99.99,,,-99.99,,2013-03-26 07:02:00,
2013-03-26 01:12:00,26.0,23.0,-100.00,SW,215,12.0,17.0,90,-99.99,,,-99.99,,2013-03-26 07:12:00,
2013-03-26 01:22:00,26.0,23.0,-100.00,SW,215,14.0,15.0,90,-99.99,,,-99.99,,2013-03-26 07:22:00,
2013-03-26 01:33:00,26.0,23.0,-100.00,SSW,206,11.0,18.0,90,-99.99,,,-99.99,,2013-03-26 07:33:00,
2013-03-26 01:42:00,26.0,23.0,-100.00,SSW,206,11.0,18.0,90,-99.99,,,-99.99,,2013-03-26 07:42:00,
2013-03-26 01:52:00,26.0,23.0,-100.00,SW,230,11.0,16.0,90,-99.99,,,-99.99,,2013-03-26 07:52:00,
2013-03-26 02:02:00,26.0,23.0,-100.00,SW,223,14.0,18.0,89,-99.99,,,-99.99,,2013-03-26 08:02:00,
2013-03-26 02:12:00,26.0,23.0,-100.00,SW,223,14.0,18.0,89,-99.99,,,-99.99,,2013-03-26 08:12:00,
2013-03-26 02:22:00,26.0,23.0,-100.00,SW,229,12.0,18.0,88,-99.99,,,-99.99,,2013-03-26 08:22:00,
2013-03-26 02:32:00,26.0,23.0,-100.00,SW,229,12.0,18.0,88,-99.99,,,-99.99,,2013-03-26 08:32:00,
2013-03-26 02:42:00,26.0,23.0,-100.00,SW,229,12.0,18.0,88,-99.99,,,-99.99,,2013-03-26 08:42:00,
2013-03-26 02:52:00,26.0,23.0,-100.00,SW,217,11.0,12.0,88,-99.99,,,-99.99,,2013-03-26 08:52:00,
2013-03-26 03:02:00,26.0,23.0,-100.00,WSW,250,11.0,16.0,87,-99.99,,,-99.99,,2013-03-26 09:02:00,
2013-03-26 03:12:00,26.0,23.0,-100.00,WSW,250,11.0,16.0,87,-99.99,,,-99.99,,2013-03-26 09:12:00,
2013-03-26 03:22:00,25.0,22.0,-100.00,SW,230,10.0,14.0,88,-99.99,,,-99.99,,2013-03-26 09:22:00,
2013-03-26 03:33:00,25.0,22.0,-100.00,SW,220,10.0,16.0,90,-99.99,,,-99.99,,2013-03-26 09:33:00,
2013-03-26 03:42:00,25.0,22.0,-100.00,SW,220,10.0,16.0,90,-99.99,,,-99.99,,2013-03-26 09:42:00,
2013-03-26 03:52:00,25.0,22.0,-100.00,SSW,196,8.0,13.0,90,-99.99,,,-99.99,,2013-03-26 09:52:00,
2013-03-26 04:02:00,24.0,22.0,-100.00,WSW,239,6.0,9.0,90,-99.99,,,-99.99,,2013-03-26 10:02:00,
2013-03-26 04:12:00,24.0,22.0,-100.00,WSW,239,6.0,9.0,90,-99.99,,,-99.99,,2013-03-26 10:12:00,
2013-03-26 04:22:00,24.0,22.0,-100.00,WSW,239,6.0,9.0,90,-99.99,,,-99.99,,2013-03-26 10:22:00,
2013-03-26 04:32:00,24.0,22.0,-100.00,SSW,192,0.0,7.0,91,-99.99,,,-99.99,,2013-03-26 10:32:00,
2013-03-26 04:42:00,24.0,22.0,-100.00,SSW,192,0.0,7.0,91,-99.99,,,-99.99,,2013-03-26 10:42:00,
2013-03-26 04:53:00,24.0,22.0,-100.00,SW,215,8.0,8.0,91,-99.99,,,-99.99,,2013-03-26 10:53:00,
2013-03-26 05:03:00,24.0,22.0,-100.00,SW,217,0.0,6.0,91,-99.99,,,-99.99,,2013-03-26 11:03:00,
2013-03-26 05:12:00,24.0,22.0,-100.00,SW,217,0.0,6.0,91,-99.99,,,-99.99,,2013-03-26 11:12:00,
2013-03-26 05:22:00,24.0,22.0,-100.00,SW,217,0.0,6.0,91,-99.99,,,-99.99,,2013-03-26 11:22:00,
2013-03-26 05:32:00,24.0,22.0,-100.00,WSW,248,2.0,3.0,91,-99.99,,,-99.99,,2013-03-26 11:32:00,
2013-03-26 05:42:00,24.0,22.0,-100.00,WSW,248,2.0,3.0,91,-99.99,,,-99.99,,2013-03-26 11:42:00,
2013-03-26 05:52:00,23.0,21.0,-100.00,SW,234,0.0,0.0,91,-99.99,,,-99.99,,2013-03-26 11:52:00,
2013-03-26 06:03:00,23.0,21.0,-100.00,SW,234,0.0,0.0,91,-99.99,,,-99.99,,2013-03-26 12:03:00,
2013-03-26 06:12:00,23.0,21.0,-100.00,SW,234,0.0,0.0,91,-99.99,,,-99.99,,2013-03-26 12:12:00,
2013-03-26 06:22:00,23.0,21.0,-100.00,SW,234,0.0,0.0,91,-99.99,,,-99.99,,2013-03-26 12:22:00,
2013-03-26 06:32:00,23.0,21.0,-100.00,SW,234,0.0,0.0,91,-99.99,,,-99.99,,2013-03-26 12:32:00,
2013-03-26 06:43:00,23.0,21.0,-100.00,SW,234,0.0,0.0,91,-99.99,,,-99.99,,2013-03-26 12:43:00,
2013-03-26 06:52:00,23.0,21.0,-100.00,SW,234,0.0,0.0,91,-99.99,,,-99.99,,2013-03-26 12:52:00,
2013-03-26 07:03:00,23.0,21.0,-100.00,SW,234,0.0,0.0,91,-99.99,,,-99.99,,2013-03-26 13:03:00,
2013-03-26 07:12:00,23.0,21.0,-100.00,SW,234,0.0,0.0,91,-99.99,,,-99.99,,2013-03-26 13:12:00,
2013-03-26 07:22:00,23.0,21.0,-100.00,SW,217,0.0,0.0,91,-99.99,,,-99.99,,2013-03-26 13:22:00,
2013-03-26 07:32:00,23.0,21.0,-100.00,SW,217,0.0,0.0,91,-99.99,,,-99.99,,2013-03-26 13:32:00,
2013-03-26 07:42:00,23.0,21.0,-100.00,SW,217,0.0,0.0,91,-99.99,,,-99.99,,2013-03-26 13:42:00,
2013-03-26 07:52:00,23.0,21.0,-100.00,SW,217,0.0,0.0,91,-99.99,,,-99.99,,2013-03-26 13:52:00,
2013-03-26 08:02:00,23.0,21.0,-100.00,South,185,0.0,0.0,91,-99.99,,,-99.99,,2013-03-26 14:02:00,
2013-03-26 08:11:00,23.0,21.0,-100.00,South,185,0.0,0.0,91,-99.99,,,-99.99,,2013-03-26 14:11:00,
2013-03-26 08:22:00,23.0,21.0,-100.00,South,185,0.0,0.0,91,-99.99,,,-99.99,,2013-03-26 14:22:00,
2013-03-26 08:32:00,24.0,22.0,-100.00,SW,223,0.0,0.0,90,-99.99,,,-99.99,,2013-03-26 14:32:00,
2013-03-26 08:42:00,24.0,22.0,-100.00,SW,223,0.0,0.0,90,-99.99,,,-99.99,,2013-03-26 14:42:00,
2013-03-26 08:53:00,25.0,22.0,-100.00,SW,223,0.0,0.0,89,-99.99,,,-99.99,,2013-03-26 14:53:00,
2013-03-26 09:02:00,25.0,22.0,-100.00,SW,223,0.0,0.0,89,-99.99,,,-99.99,,2013-03-26 15:02:00,
2013-03-26 09:12:00,25.0,22.0,-100.00,SW,223,0.0,0.0,89,-99.99,,,-99.99,,2013-03-26 15:12:00,
2013-03-26 09:22:00,26.0,23.0,-100.00,SW,223,0.0,0.0,89,-99.99,,,-99.99,,2013-03-26 15:22:00,
2013-03-26 09:33:00,26.0,23.0,-100.00,SW,223,0.0,0.0,89,-99.99,,,-99.99,,2013-03-26 15:33:00,
2013-03-26 09:43:00,26.0,23.0,-100.00,SW,223,0.0,0.0,89,-99.99,,,-99.99,,2013-03-26 15:43:00,
2013-03-26 09:52:00,29.0,25.0,-100.00,WNW,286,0.0,0.0,86,-99.99,,,-99.99,,2013-03-26 15:52:00,
2013-03-26 10:03:00,30.0,24.0,-100.00,WNW,293,0.0,6.0,79,-99.99,,,-99.99,,2013-03-26 16:03:00,
2013-03-26 10:12:00,30.0,24.0,-100.00,WNW,293,0.0,6.0,79,-99.99,,,-99.99,,2013-03-26 16:12:00,
2013-03-26 10:22:00,32.0,26.0,-100.00,WNW,291,0.0,0.0,77,-99.99,,,-99.99,,2013-03-26 16:22:00,
2013-03-26 10:32:00,32.0,26.0,-100.00,WNW,291,0.0,0.0,77,-99.99,,,-99.99,,2013-03-26 16:32:00,
2013-03-26 10:42:00,32.0,26.0,-100.00,WNW,291,0.0,0.0,77,-99.99,,,-99.99,,2013-03-26 16:42:00,
2013-03-26 10:53:00,33.0,26.0,-100.00,NNE,23,0.0,4.0,76,-99.99,,,-99.99,,2013-03-26 16:53:00,
2013-03-26 11:02:00,33.0,26.0,-100.00,NNE,23,0.0,4.0,76,-99.99,,,-99.99,,2013-03-26 17:02:00,
2013-03-26 11:12:00,33.0,26.0,-100.00,NNE,23,0.0,4.0,76,-99.99,,,-99.99,,2013-03-26 17:12:00,
2013-03-26 11:23:00,34.0,28.0,-100.00,NE,42,0.0,3.0,77,-99.99,,,-99.99,,2013-03-26 17:23:00,
2013-03-26 11:32:00,34.0,27.0,-100.00,NNE,14,0.0,5.0,76,-99.99,,,-99.99,,2013-03-26 17:32:00,
2013-03-26 11:42:00,34.0,27.0,-100.00,NNE,14,0.0,5.0,76,-99.99,,,-99.99,,2013-03-26 17:42:00,
2013-03-26 11:53:00,34.0,28.0,-100.00,NNE,12,0.0,4.0,77,-99.99,,,-99.99,,2013-03-26 17:53:00,
2013-03-26 12:02:00,34.0,28.0,-100.00,NNE,29,0.0,5.0,77,-99.99,,,-99.99,,2013-03-26 18:02:00,
2013-03-26 12:12:00,34.0,28.0,-100.00,NNE,29,0.0,5.0,77,-99.99,,,-99.99,,2013-03-26 18:12:00,
2013-03-26 12:23:00,33.0,27.0,-100.00,ENE,74,3.0,7.0,79,-99.99,,,-99.99,,2013-03-26 18:23:00,
2013-03-26 12:33:00,33.0,27.0,-100.00,ENE,74,3.0,7.0,79,-99.99,,,-99.99,,2013-03-26 18:33:00,
2013-03-26 12:42:00,33.0,27.0,-100.00,ENE,74,3.0,7.0,79,-99.99,,,-99.99,,2013-03-26 18:42:00,
2013-03-26 12:52:00,36.0,29.0,-100.00,East,85,3.0,6.0,75,-99.99,,,-99.99,,2013-03-26 18:52:00,
2013-03-26 13:03:00,36.0,29.0,-100.00,ENE,73,4.0,5.0,75,-99.99,,,-99.99,,2013-03-26 19:03:00,
2013-03-26 13:12:00,36.0,29.0,-100.00,ENE,73,4.0,5.0,75,-99.99,,,-99.99,,2013-03-26 19:12:00,
2013-03-26 13:22:00,36.0,29.0,-100.00,ENE,73,0.0,0.0,75,-99.99,,,-99.99,,2013-03-26 19:22:00,
2013-03-26 13:32:00,36.0,29.0,-100.00,ENE,73,0.0,0.0,75,-99.99,,,-99.99,,2013-03-26 19:32:00,
2013-03-26 13:42:00,36.0,29.0,-100.00,ENE,73,0.0,0.0,75,-99.99,,,-99.99,,2013-03-26 19:42:00,
2013-03-26 13:52:00,36.0,29.0,-100.00,ENE,74,0.0,6.0,74,-99.99,,,-99.99,,2013-03-26 19:52:00,
2013-03-26 14:02:00,38.0,30.0,-100.00,ENE,63,0.0,0.0,74,-99.99,,,-99.99,,2013-03-26 20:02:00,
2013-03-26 14:13:00,38.0,30.0,-100.00,ENE,63,0.0,0.0,74,-99.99,,,-99.99,,2013-03-26 20:13:00,
2013-03-26 14:22:00,38.0,31.0,-100.00,ENE,63,0.0,0.0,76,-99.99,,,-99.99,,2013-03-26 20:22:00,
2013-03-26 14:32:00,38.0,31.0,-100.00,ENE,63,0.0,0.0,75,-99.99,,,-99.99,,2013-03-26 20:32:00,
2013-03-26 14:42:00,38.0,31.0,-100.00,ENE,63,0.0,0.0,75,-99.99,,,-99.99,,2013-03-26 20:42:00,
2013-03-26 14:52:00,38.0,31.0,-100.00,East,81,0.0,0.0,76,-99.99,,,-99.99,,2013-03-26 20:52:00,
2013-03-26 15:02:00,38.0,31.0,-100.00,East,81,0.0,0.0,76,-99.99,,,-99.99,,2013-03-26 21:02:00,
2013-03-26 15:12:00,38.0,31.0,-100.00,East,81,0.0,0.0,76,-99.99,,,-99.99,,2013-03-26 21:12:00,
2013-03-26 15:22:00,38.0,31.0,-100.00,East,81,0.0,0.0,76,-99.99,,,-99.99,,2013-03-26 21:22:00,
2013-03-26 16:22:00,39.0,31.0,-100.00,East,90,0.0,0.0,72,-99.99,,,-99.99,,2013-03-26 22:22:00,
2013-03-26 16:33:00,39.0,31.0,-100.00,East,90,0.0,0.0,72,-99.99,,,-99.99,,2013-03-26 22:33:00,
2013-03-26 16:42:00,39.0,31.0,-100.00,East,90,0.0,0.0,72,-99.99,,,-99.99,,2013-03-26 22:42:00,
2013-03-26 17:12:00,38.0,30.0,-100.00,East,81,0.0,0.0,72,-99.99,,,-99.99,,2013-03-26 23:12:00,
2013-03-26 17:32:00,38.0,30.0,-100.00,East,81,0.0,0.0,72,-99.99,,,-99.99,,2013-03-26 23:32:00,
2013-03-26 17:43:00,38.0,30.0,-100.00,East,81,0.0,0.0,72,-99.99,,,-99.99,,2013-03-26 23:43:00,
2013-03-26 17:53:00,38.0,30.0,-100.00,East,81,0.0,0.0,72,-99.99,,,-99.99,,2013-03-26 23:53:00,
2013-03-26 18:02:00,38.0,30.0,-100.00,East,81,0.0,0.0,72,-99.99,,,-99.99,,2013-03-27 00:02:00,
2013-03-26 18:22:00,37.0,28.0,-100.00,ENE,70,0.0,0.0,69,-99.99,,,-99.99,,2013-03-27 00:22:00,
2013-03-26 18:32:00,37.0,28.0,-100.00,ESE,102,0.0,0.0,70,-99.99,,,-99.99,,2013-03-27 00:32:00,
2013-03-26 18:42:00,37.0,28.0,-100.00,ESE,102,0.0,0.0,70,-99.99,,,-99.99,,2013-03-27 00:42:00,
2013-03-26 18:52:00,36.0,27.0,-100.00,ESE,102,0.0,0.0,70,-99.99,,,-99.99,,2013-03-27 00:52:00,
2013-03-26 19:02:00,36.0,27.0,-100.00,ESE,102,0.0,0.0,70,-99.99,,,-99.99,,2013-03-27 01:02:00,
2013-03-26 19:12:00,36.0,27.0,-100.00,ESE,102,0.0,0.0,70,-99.99,,,-99.99,,2013-03-27 01:12:00,
2013-03-26 19:22:00,36.0,27.0,-100.00,ESE,102,0.0,0.0,70,-99.99,,,-99.99,,2013-03-27 01:22:00,
2013-03-26 19:53:00,33.0,28.0,-100.00,ESE,102,0.0,0.0,80,-99.99,,,-99.99,,2013-03-27 01:53:00,
2013-03-26 20:03:00,33.0,28.0,-100.00,East,82,0.0,6.0,82,-99.99,,,-99.99,,2013-03-27 02:03:00,
2013-03-26 20:12:00,33.0,28.0,-100.00,East,82,0.0,6.0,82,-99.99,,,-99.99,,2013-03-27 02:12:00,
2013-03-26 20:22:00,32.0,28.0,-100.00,East,81,0.0,0.0,84,-99.99,,,-99.99,,2013-03-27 02:22:00,
2013-03-26 20:32:00,32.0,27.0,-100.00,East,81,0.0,0.0,83,-99.99,,,-99.99,,2013-03-27 02:32:00,
2013-03-26 20:42:00,32.0,27.0,-100.00,East,81,0.0,0.0,83,-99.99,,,-99.99,,2013-03-27 02:42:00,
2013-03-26 20:52:00,31.0,27.0,-100.00,East,81,0.0,0.0,85,-99.99,,,-99.99,,2013-03-27 02:52:00,
2013-03-26 21:02:00,31.0,27.0,-100.00,East,81,0.0,0.0,86,-99.99,,,-99.99,,2013-03-27 03:02:00,
2013-03-26 21:12:00,31.0,27.0,-100.00,East,81,0.0,0.0,86,-99.99,,,-99.99,,2013-03-27 03:12:00,
2013-03-26 21:22:00,30.0,27.0,-100.00,East,81,0.0,0.0,88,-99.99,,,-99.99,,2013-03-27 03:22:00,
2013-03-26 21:33:00,30.0,27.0,-100.00,East,81,0.0,0.0,88,-99.99,,,-99.99,,2013-03-27 03:33:00,
2013-03-26 21:42:00,30.0,27.0,-100.00,East,81,0.0,0.0,88,-99.99,,,-99.99,,2013-03-27 03:42:00,
2013-03-26 21:53:00,30.0,27.0,-100.00,East,81,0.0,0.0,89,-99.99,,,-99.99,,2013-03-27 03:53:00,
2013-03-26 22:02:00,29.0,26.0,-100.00,East,81,0.0,0.0,89,-99.99,,,-99.99,,2013-03-27 04:02:00,
2013-03-26 22:13:00,29.0,26.0,-100.00,East,81,0.0,0.0,89,-99.99,,,-99.99,,2013-03-27 04:13:00,
2013-03-26 22:23:00,29.0,26.0,-100.00,East,81,0.0,0.0,90,-99.99,,,-99.99,,2013-03-27 04:23:00,
2013-03-26 22:33:00,29.0,26.0,-100.00,East,81,0.0,0.0,90,-99.99,,,-99.99,,2013-03-27 04:33:00,
2013-03-26 22:42:00,29.0,26.0,-100.00,East,81,0.0,0.0,90,-99.99,,,-99.99,,2013-03-27 04:42:00,
2013-03-26 22:52:00,28.0,26.0,-100.00,WSW,239,0.0,3.0,91,-99.99,,,-99.99,,2013-03-27 04:52:00,
2013-03-26 23:02:00,28.0,26.0,-100.00,WSW,239,0.0,0.0,91,-99.99,,,-99.99,,2013-03-27 05:02:00,
2013-03-26 23:12:00,28.0,26.0,-100.00,WSW,239,0.0,0.0,91,-99.99,,,-99.99,,2013-03-27 05:12:00,
2013-03-26 23:23:00,28.0,26.0,-100.00,WSW,253,4.0,4.0,91,-99.99,,,-99.99,,2013-03-27 05:23:00,
2013-03-26 23:32:00,28.0,26.0,-100.00,SW,225,3.0,5.0,92,-99.99,,,-99.99,,2013-03-27 05:32:00,
2013-03-26 23:42:00,28.0,26.0,-100.00,SW,225,3.0,5.0,92,-99.99,,,-99.99,,2013-03-27 05:42:00,
2013-03-26 23:52:00,28.0,26.0,-100.00,SSW,196,0.0,0.0,92,-99.99,,,-99.99,,2013-03-27 05:52:00,